Location: *
(23.5860°S, 65.4036°W)
Time: 15:28:52
(UTC+00:00)

ADEOS Rocket - Pass Details

Date: 25 August 2019
Orbit: 859 x 1306 km, 98.7° (Epoch: 22 October)

Event Time Altitude Azimuth Distance (km) Brightness Sun altitude
Rises 22:40:09 0° 49° (NE) 4,134 5.9 -7.9°
Reaches altitude 10° 22:43:19 10° 62° (ENE) 3,226 5.2 -8.7°
Maximum altitude 22:49:05 25° 112° (ESE) 2,381 4.5 -10.0°
Drops below altitude 10° 22:55:00 10° 162° (SSE) 3,342 5.5 -11.3°
Sets 22:58:19 0° 174° (S) 4,314 6.2 -12.1°
